Hourly Weather Roundup
Issued by NWS Central Illinois

Home | Current Version | Previous Version | Text Only | Print | Product List | Glossary On
Versions: 1 2 3 4 5 6 7 8 9 10 11 12 13 14 15 16 17 18 19 20 21 22 23 24 25 26 27 28 29 30 31 32 33 34 35 36 37 38 39 40 41 42 43 44 45 46 47 48 49 50
406
NZUS43 KILX 291310
HWRILX

AREA WEATHER ROUNDUP
NATIONAL WEATHER SERVICE, LINCOLN IL
800 AM CDT FRI APR 29 2016


CITY           SKY/WX    TMP DP  RH WIND       PRES   REMARKS
BLOOMINGTON    CLOUDY    50  49  96 N13       30.05S FOG
CHAMPAIGN      CLOUDY    51  49  92 N8        30.05R FOG
DANVILLE       FOG       47  47  99 N10       30.02F VSB 1
DECATUR        MOSUNNY   55  50  83 N9        30.05R
EFFINGHAM      MOSUNNY   55  53  95 N3        30.06S
FLORA          SUNNY     57  52  84 N5        30.06R
GALESBURG      CLOUDY    45  45  99 N12       30.04F FOG
JACKSONVILLE   PTSUNNY   52  49  88 N5        30.03F
LACON          CLOUDY    46  43  90 N5        30.06R FOG
LAWRENCEVILLE  SUNNY     56  52  86 CALM      30.05S
LITCHFIELD     SUNNY     53  47  81 N6        30.05R
$$


CITY           SKY/WX    TMP DP  RH WIND       PRES   REMARKS
LINCOLN        CLOUDY    52  51  93 N6        30.07R FOG
MACOMB         CLOUDY    48  46  94 NE14      30.07S FOG
MATTOON        CLOUDY    54  49  83 NW8       30.05
MT CARMEL AP   NOT AVBL
OLNEY-NOBLE AP MOSUNNY   55  52  88 NW3       30.06R
PARIS          SUNNY     53  51  91 W3        30.05R
PEORIA         CLOUDY    48  43  82 N10G18    30.05F HAZE
PONTIAC        CLOUDY    47  46  95 N12       30.05F FOG
RANTOUL        CLOUDY    52  50  94 N10       30.03F FOG
ROBINSON       MOSUNNY   53  51  91 CALM      30.06R
SPRINGFIELD    CLOUDY    52  49  89 NE10      30.03F
TAYLORVILLE    MOSUNNY   54  50  87 N10       30.03F
$$

...REGIONAL REPORTS...


CITY           SKY/WX    TMP DP  RH WIND       PRES   REMARKS
CHICAGO O`HARE CLOUDY    42  40  92 N9        30.08S FOG
KANKAKEE       CLOUDY    48  44  85 N9        30.06F FOG
MOLINE         CLOUDY    46  40  79 N5        30.07S
MOUNT STERLING CLOUDY    50  48  93 N9        30.03S FOG
MOUNT VERNON   SUNNY     55  48  76 NE3       30.06R
PITTSFIELD     CLOUDY    50  48  93 NE5       30.07R
QUINCY         CLOUDY    51  47  86 NE15G21   30.03R
ROCKFORD       CLOUDY    43  39  86 N12       30.11F
$$


CITY           SKY/WX    TMP DP  RH WIND       PRES   REMARKS
BURLINGTON     CLOUDY    47  46  97 NE10      30.05F FOG
CEDAR RAPIDS   PTSUNNY   44  41  89 N14       30.07F
DES MOINES     CLOUDY    47  42  83 N14       30.06F
KIRKSVILLE     CLOUDY    49  46  90 N7        30.07R
OTTUMWA        CLOUDY    46  44  93 NE15      30.02F
ST LOUIS       CLOUDY    56  48  74 NE8       30.06R
$$


CITY           SKY/WX    TMP DP  RH WIND       PRES   REMARKS
TERRE HAUTE    SUNNY     56  50  80 CALM      30.03F
EVANSVILLE     SUNNY     59  52  77 NE5       30.05S
INDIANAPOLIS   MOSUNNY   55  48  77 NW7       30.02F FOG
LAFAYETTE      CLOUDY    48  47  96 NW6       30.04F FOG
MADISON        PTSUNNY   40  37  89 N5        30.12R
MILWAUKEE      CLOUDY    41  37  86 N9        30.10R
$$






USA.gov is the U.S. government's official web portal to all federal, state and local government web resources and services.